Content
SEND FEEDBACK

Daily
Averages
Monthly
Summary
Australia

MELBOURNE, VICTORIA


Home > Oceania > Australia > Victoria
Elevation: 433 feet     Latitude: 37 41S     Longitude: 144 51E

WEATHER
 
SELECT A DAY
Number of Records: 284,981;   Date Range: 7/1/96 - 8/10/14
 
SHARE

PRINT THIS DATA

[ ← Previous Day ]
WEATHER ALMANAC - FEBRUARY 13, 2013
[ Next Day → ]
[ °C ]   °F
Weather ElementAverageHighLow
Temperature72.2 °F90 °F (5:00 pm)55.4 °F (5:00 am)
Dewpoint53.5 °F57.2 °F (9:30 am)50 °F (1:00 pm)
Humidity55.7 %94 % (5:00 am)20 % (5:00 pm)
Barometer30.07 in30.15 in (8:30 am)29.95 in (6:00 pm)
Wind Speed9.9 mph19.6 mph (5:30 pm)
Weather ElementAverage
Visibility14.9 mi
Wind DirectionSSW (213.1 °)

Weather ElementTotal
Precipitation---
Cooling Degree Days7.7 (Base 65)
Growing Degree Days22.7 (Base 50)
Averaged from 62 records on February 13, 2013
WEATHER CONDITIONS BREAKOUT
WIND DIRECTION BREAKOUT
WEATHER BY HOUR - FEBRUARY 13, 2013
[ °C ]   °F
Local TimeTemperatureDewpointHumidityBarometerVisibilityWind DirectionWind SpeedGust SpeedPrecipitationEventsConditions
12:00 AM60.8 °F51.8 °F72 %30.09 inSSW (210°)5.8 mphClear
12:30 AM59.0 °F51.8 °F77 %30.09 inWSW (250°)4.6 mphClear
1:00 AM59.0 °F51.8 °F77 %30.09 inWNW (290°)8.1 mphClear
1:30 AM57.2 °F51.8 °F82 %30.09 inWNW (290°)8.1 mphClear
2:00 AM57.0 °F53.0 °F81 %30.10 inWNW (290°)8.1 mph
2:00 AM57.2 °F53.6 °F88 %30.09 inWNW (290°)8.1 mphClear
2:30 AM57.2 °F53.6 °F88 %30.09 inWNW (290°)9.2 mphClear
3:00 AM57.2 °F53.6 °F88 %30.09 inWNW (290°)8.1 mphClear
3:00 AM57.0 °F53.0 °F83 %30.09 in22.0 miWNW (290°)8.1 mphPartly Cloudy
3:30 AM57.2 °F53.6 °F88 %30.09 inWNW (290°)8.1 mphClear
4:00 AM57.2 °F53.6 °F88 %30.09 inWNW (290°)9.2 mphClear
4:30 AM57.2 °F53.6 °F88 %30.09 inNW (320°)9.2 mphClear
5:00 AM56.0 °F53.0 °F88 %30.09 inWNW (290°)8.1 mph
5:00 AM55.4 °F53.6 °F94 %30.09 inWNW (290°)8.1 mphClear
5:30 AM57.2 °F53.6 °F88 %30.09 inWNW (300°)8.1 mphClear
6:00 AM57.2 °F53.6 °F88 %30.09 inWest (280°)8.1 mphClear
6:00 AM58.0 °F54.0 °F83 %30.10 in19.0 miWest (280°)8.1 mphPartly Cloudy
6:30 AM57.2 °F53.6 °F88 %30.12 inWNW (290°)6.9 mphClear
7:00 AM57.2 °F53.6 °F88 %30.12 inWest (280°)5.8 mphClear
7:30 AM59.0 °F55.4 °F88 %30.12 inWest (280°)6.9 mphClear
8:00 AM61.0 °F55.0 °F73 %30.13 inWNW (300°)6.9 mph
8:00 AM60.8 °F55.4 °F82 %30.12 inWNW (300°)6.9 mphClear
8:30 AM62.6 °F55.4 °F77 %30.15 inWNW (300°)5.8 mphClear
9:00 AM64.4 °F55.4 °F73 %30.15 inWNW (290°)5.8 mphClear
9:00 AM64.0 °F55.0 °F66 %30.14 in12.0 miWNW (290°)5.8 mphSmoke
9:30 AM66.2 °F57.2 °F73 %30.15 inWest (260°)5.8 mphClear
10:00 AM69.8 °F57.2 °F64 %30.15 inNNW (330°)3.5 mphClear
10:30 AM71.6 °F55.4 °F57 %30.12 inNorth (360°)1.2 mphClear
11:00 AM74.0 °F56.0 °F42 %30.12 inENE (70°)3.5 mph
11:00 AM75.2 °F55.4 °F50 %30.12 inENE (70°)3.5 mphClear
11:30 AM77.0 °F55.4 °F47 %30.12 inSSE (150°)8.1 mphClear
12:00 PM80.6 °F55.4 °F42 %30.09 inNNE (30°)6.9 mphClear
12:00 PM80.0 °F55.0 °F32 %30.10 in12.0 miNNE (30°)6.9 mphHaze
12:30 PM86.0 °F51.8 °F31 %30.09 inNNE (20°)15.0 mphClear
1:00 PM87.8 °F50.0 °F27 %30.06 inNNE (30°)12.7 mphClear
1:30 PM87.8 °F50.0 °F27 %30.06 inNorth (10°)8.1 mphClear
2:00 PM86.0 °F54.0 °F24 %30.05 inSE (130°)12.7 mph
2:00 PM86.0 °F55.4 °F35 %30.04 inSE (130°)12.7 mphClear
2:30 PM86.0 °F55.4 °F35 %30.04 inSSE (160°)16.1 mphClear
3:00 PM86.0 °F55.4 °F35 %30.04 inSouth (190°)15.0 mphClear
3:00 PM87.0 °F55.0 °F24 %30.03 in12.0 miSouth (190°)15.0 mphHaze
3:30 PM87.8 °F55.4 °F33 %30.01 inSouth (180°)15.0 mphClear
4:00 PM87.8 °F55.4 °F33 %30.01 inSouth (180°)16.1 mphClear
4:30 PM89.6 °F53.6 °F29 %29.98 inSSE (160°)17.3 mphClear
5:00 PM90.0 °F54.0 °F20 %29.98 inSouth (170°)18.4 mph
5:00 PM89.6 °F53.6 °F29 %29.98 inSouth (170°)18.4 mphClear
5:30 PM89.6 °F53.6 °F29 %29.98 inSouth (170°)19.6 mphClear
6:00 PM87.8 °F51.8 °F29 %29.95 inSSE (160°)19.6 mphClear
6:00 PM88.0 °F53.0 °F20 %29.96 in11.0 miSSE (160°)19.6 mphHaze
6:30 PM87.8 °F51.8 °F29 %29.95 inSSE (150°)18.4 mphClear
7:00 PM86.0 °F50.0 °F29 %29.98 inSE (140°)17.3 mphClear
7:30 PM84.2 °F50.0 °F30 %29.98 inSSE (150°)17.3 mphClear
8:00 PM82.4 °F50.0 °F32 %30.01 inSE (130°)15.0 mphClear
8:30 PM80.6 °F50.0 °F34 %30.01 inSSE (150°)11.5 mphClear
9:00 PM78.8 °F51.8 °F39 %30.01 inSouth (180°)6.9 mphClear
9:00 PM78.0 °F52.0 °F29 %30.02 in16.0 miSouth (180°)6.9 mphHaze
9:30 PM77.0 °F51.8 °F41 %30.04 inSSE (150°)5.8 mphClear
10:00 PM75.2 °F51.8 °F44 %30.04 inSouth (170°)3.5 mphClear
10:30 PM73.4 °F51.8 °F47 %30.04 inWNW (290°)8.1 mphClear
11:00 PM71.0 °F54.0 °F44 %30.05 inWest (280°)8.1 mph
11:00 PM71.6 °F53.6 °F53 %30.04 inWest (280°)8.1 mphClear
11:30 PM71.6 °F55.4 °F57 %30.04 inWNW (290°)9.2 mphClear
Hourly data recorded from YMML, located miles away from Melbourne, Victoria







STORIES FROM OUR PARTNERS